Terminal Aerodrome Forecast
Issued by NWS Upton, NY

Home | Current Version | Previous Version | Text Only | Print | Product List | Glossary On
Versions: 1 2 3 4 5 6 7 8 9 10 11 12 13 14 15 16 17 18 19 20 21 22 23 24 25 26 27 28 29 30 31 32 33 34
160
FTUS41 KOKX 211120
TAFLGA
TAF
KLGA 211120Z 2112/2212 34012KT P6SM SCT150 BKN250
     FM211400 36013G20KT P6SM FEW040 BKN250
     FM212300 36010KT P6SM SCT050 BKN250
     FM220500 35012KT P6SM BKN250=

USA.gov is the U.S. government's official web portal to all federal, state and local government web resources and services.